Regional Weather Roundup
Issued by NWS

Home | Current Version | Previous Version | Text Only | Print | Product List | Glossary Off
Versions: 1 2 3 4 5 6 7 8 9 10 11 12 13 14 15 16 17 18 19 20 21 22 23 24 25 26 27 28

000
ASUS45 KTFX 290210
RWRMT
MONTANA REGIONAL WEATHER ROUNDUP
NATIONAL WEATHER SERVICE GREAT FALLS MT
800 PM MDT SUN MAY 28 2017

NOTE: "FAIR" INDICATES FEW OR NO CLOUDS BELOW 12000 FEET WITH NO
SIGNIFICANT WEATHER AND/OR OBSTRUCTIONS TO VISIBILITY.

MTZ001>007-043-290300-
WEST OF THE DIVIDE

CITY           SKY/WX    TMP DP  RH WIND       PRES   REMARKS
KALISPELL      MOSUNNY   76  43  30 NE9       30.11S
MISSOULA       SUNNY     76  38  25 N10       30.12S
BUTTE          CLOUDY    62  38  40 SE14      30.27R
MULLAN PASS    CLOUDY    61  34  36 NW3       30.27F
ANACONDA         N/A     66  39  37 N5        30.21F
DEER LODGE       N/A     64  43  45 N6        30.24R
EUREKA           N/A     79  39  24 SW6       30.08S
HAMILTON         N/A     75  43  31 NW8       30.13S
$$

MTZ008-052>055-290300-
SOUTHWEST MONTANA

CITY           SKY/WX    TMP DP  RH WIND       PRES   REMARKS
BOZEMAN        PTCLDY    62  41  46 N9        30.22F
DILLON         MOCLDY    63  40  42 N9        30.23R
ENNIS          PTCLDY    61  41  48 NE8       30.29R
$$

MTZ009-010-012-014-046-048-049-054-290300-
EAST SLOPES AND CENTRAL MONTANA

CITY           SKY/WX    TMP DP  RH WIND       PRES   REMARKS
CUT BANK       SUNNY     68  41  37 NE8       30.22S
GREAT FALLS    CLOUDY    61  49  64 SW7       30.21F
MALMSTROM AFB  CLOUDY    63  49  61 SW8       30.21F
HELENA         CLOUDY    67  42  40 N3        30.23S
CHOTEAU          N/A     59  46  63 SW5       30.25S
$$

MTZ011-013-016-021-045-047-050-051-290300-
NORTH CENTRAL MONTANA

CITY           SKY/WX    TMP DP  RH WIND       PRES   REMARKS
HAVRE          CLEAR     70  32  24 N14       30.17R
LEWISTOWN      CLEAR     64  38  38 N9        30.22R
N BAR RANCH      N/A     63  37  39 NW8G14    30.24S
CHINOOK          N/A     70  34  26 NW12G17   30.15S
$$

MTZ017>020-022>027-061-062-290300-
NORTHEAST MONTANA

CITY           SKY/WX    TMP DP  RH WIND       PRES   REMARKS
GLASGOW        CLEAR     67  22  18 N22G28    30.09R
JORDAN           N/A     68  26  20 N20       30.10S
SIDNEY         CLEAR     64  34  32 N21G28    30.03R
WOLF POINT     CLEAR     69  26  20 N18G26    30.06R
MALTA          CLEAR     68  30  24 N14G21    30.12S
PLENTYWOOD       N/A     61  34  36 N18G26    30.04R
POPLAR           N/A     66  28  24 N14       30.05R
$$

MTZ028>42-056>058-290300-
SOUTHCENTRAL AND SOUTHEAST MONTANA

CITY           SKY/WX    TMP DP  RH WIND       PRES   REMARKS
BAKER          CLEAR     64  31  28 NW17      30.05R
BILLINGS       PTCLDY    61  48  62 SW12      30.19S
LIVINGSTON     LGT RAIN  56  48  74 NE12      30.27R
MILES CITY     CLEAR     70  25  18 N21G29    30.08R
BIG TIMBER     MOCLDY    59  43  55 NW6       30.29R
FORSYTH          N/A     70  27  19 NW13G20   30.10R
LAUREL           N/A     59  54  82 SW6       30.20S
$$

REGIONAL REPORTS...DAKOTAS

CITY           SKY/WX    TMP DP  RH WIND       PRES   REMARKS
WILLISTON      CLEAR     60  40  47 N15       30.03R
MINOT          PTCLDY    58  43  57 NW18G35   29.93R
DICKINSON      PTCLDY    61  27  27 N16G29    29.97R
BEACH            N/A     63  30  29 N13G23    30.06R
CROSBY           N/A     57  39  51 N23       30.02R
TIOGA            N/A     57  37  47 N21       30.01S
WATFORD CITY     N/A     59  39  47 N12G17    30.01R
BISMARCK       CLOUDY    61  40  45 N18G26    29.93R
GRAND FORKS    CLOUDY    54  48  80 NW20G25   29.77S
FARGO          CLOUDY    55  51  86 NW12      29.78R
BUFFALO SD       N/A     64  34  32 N16       29.97R
RAPID CITY     PTCLDY    64  42  44 NW14      30.04R
$$

REGIONAL REPORTS...WYOMING/IDAHO/WASHINGTON

CITY           SKY/WX    TMP DP  RH WIND       PRES   REMARKS
GILLETTE         N/A    N/A N/A N/A MISG      30.16S
SHERIDAN       PTCLDY    60  43  53 W14       30.19F
BUFFALO WY     PTCLDY    59  37  44 NW21      30.23F
CODY           PTCLDY    60  41  49 SW7       30.27S
YELLOWSTONE LA   N/A     46  36  68 CALM      30.39R
IDAHO FALLS    CLEAR     73  38  27 NE5       30.18F
SALMON         SUNNY     72  41  33 CALM      30.10R
BOISE          SUNNY     82  36  19 N8        30.07F
SPOKANE        MOSUNNY   82  38  20 SW5       30.08F
$$

REGIONAL REPORTS...ALBERTA

CITY           SKY/WX    TMP DP  RH WIND       PRES   REMARKS
EDMONTON       SUNNY     64  34  32 NE8       30.22F
LETHBRIDGE     MOSUNNY   68  43  40 E5        30.19S
MEDICINE HAT   SUNNY     66  28  24 N12G18    30.18S
WATERTON GATE    N/A     66  43  42 SE3         N/A
MILK RIVER       N/A     66  43  42 NE9         N/A
ONEFOUR          N/A     64  36  34 N14         N/A
$$

REGIONAL REPORTS...SASKATCHEWAN

CITY           SKY/WX    TMP DP  RH WIND       PRES   REMARKS
SWIFT CURRENT  CLEAR     59  32  36 N18G24    30.14R
SASKATOON      PTCLDY    57  37  47 N15G23    30.15R
VAL MARIE        N/A     61  25  25 N18         N/A
ROCKGLEN         N/A     57  28  33 N16G24      N/A
ASSINIBOIA       N/A     64  28  25 N10         N/A
$$




USA.gov is the U.S. government's official web portal to all federal, state and local government web resources and services.